When you browse on this site, cookies collect data to enhance your experience and personalize the content and advertising you see.
Visit our Privacy Policy to learn more. By continuing to use the site, you agree to this use of cookies and data.
  • în România
  • Lista ţărilor
  • Pe 7 zile
  • Temperatura apei
  • Hartă satelitară
  • Meteo pe hartă
  • Widget-uri
  • user-avatar
    Intrare

    Meteo pe oră la Milikowice

    Astăzi, 25 Mai, Sâmbătă

    Timp Temperatura Precipitaţii Vânt Presiune Umiditate
    00:00 +12°C° 0 mm 2 m/s 737 mmHg 74%
    01:00 +12°C° 0 mm 2 m/s 737 mmHg 75%
    02:00 +12°C° 0 mm 2 m/s 737 mmHg 77%
    03:00 +12°C° 0 mm 2 m/s 737 mmHg 79%
    04:00 +12°C° 0 mm 2 m/s 737 mmHg 81%
    05:00 +13°C° 0 mm 2 m/s 737 mmHg 79%
    06:00 +15°C° 0 mm 2 m/s 737 mmHg 76%
    07:00 +17°C° 0 mm 2 m/s 737 mmHg 73%
    08:00 +18°C° 0.5 mm 2 m/s 737 mmHg 73%
    09:00 +19°C° 0.5 mm 3 m/s 738 mmHg 72%
    10:00 +19°C° 0.5 mm 3 m/s 738 mmHg 71%
    11:00 +20°C° 0.8 mm 3 m/s 738 mmHg 71%
    12:00 +20°C° 0.8 mm 3 m/s 738 mmHg 70%
    13:00 +20°C° 0.8 mm 3 m/s 737 mmHg 70%
    14:00 +20°C° 0.6 mm 3 m/s 737 mmHg 72%
    15:00 +20°C° 0.6 mm 3 m/s 737 mmHg 73%
    16:00 +19°C° 0.6 mm 3 m/s 737 mmHg 75%
    17:00 +18°C° 0.3 mm 2 m/s 737 mmHg 78%
    18:00 +17°C° 0.3 mm 2 m/s 737 mmHg 82%
    19:00 +16°C° 0.3 mm 2 m/s 737 mmHg 85%
    20:00 +15°C° 0 mm 2 m/s 737 mmHg 87%
    21:00 +14°C° 0 mm 2 m/s 738 mmHg 89%
    22:00 +12°C° 0 mm 2 m/s 738 mmHg 90%
    23:00 +12°C° 0 mm 2 m/s 738 mmHg 91%

    Mâine, 26 Mai, Duminică

    Timp Temperatura Precipitaţii Vânt Presiune Umiditate
    00:00 +10°C° 0 mm 2 m/s 738 mmHg 92%
    01:00 +9°C° 0 mm 2 m/s 738 mmHg 94%
    02:00 +10°C° 0 mm 1 m/s 738 mmHg 93%
    03:00 +9°C° 0 mm 1 m/s 738 mmHg 93%
    04:00 +9°C° 0 mm 1 m/s 738 mmHg 93%
    05:00 +11°C° 0 mm 1 m/s 738 mmHg 89%
    06:00 +13°C° 0 mm 1 m/s 738 mmHg 86%
    07:00 +14°C° 0 mm 1 m/s 738 mmHg 82%
    08:00 +16°C° 0 mm 1 m/s 738 mmHg 74%
    09:00 +18°C° 0 mm 2 m/s 738 mmHg 67%
    10:00 +19°C° 0 mm 2 m/s 738 mmHg 59%
    11:00 +20°C° 0 mm 3 m/s 738 mmHg 58%
    12:00 +21°C° 0 mm 3 m/s 737 mmHg 57%
    13:00 +21°C° 0 mm 3 m/s 737 mmHg 56%
    14:00 +21°C° 0.1 mm 3 m/s 737 mmHg 58%
    15:00 +22°C° 0.1 mm 4 m/s 736 mmHg 60%
    16:00 +22°C° 0.1 mm 4 m/s 736 mmHg 62%
    17:00 +20°C° 0.2 mm 3 m/s 736 mmHg 68%
    18:00 +19°C° 0.2 mm 2 m/s 736 mmHg 74%
    19:00 +19°C° 0.2 mm 1 m/s 736 mmHg 80%
    20:00 +17°C° 0 mm 2 m/s 736 mmHg 82%
    21:00 +16°C° 0 mm 2 m/s 736 mmHg 85%
    22:00 +14°C° 0 mm 2 m/s 736 mmHg 87%
    23:00 +14°C° 0 mm 2 m/s 736 mmHg 87%

    Poimâine, 27 Mai, Luni

    Timp Temperatura Precipitaţii Vânt Presiune Umiditate
    00:00 +14°C° 0 mm 2 m/s 736 mmHg 88%
    01:00 +13°C° 0 mm 2 m/s 736 mmHg 89%
    02:00 +12°C° 0 mm 3 m/s 735 mmHg 89%
    03:00 +12°C° 0 mm 3 m/s 735 mmHg 90%
    04:00 +12°C° 0 mm 3 m/s 735 mmHg 91%
    05:00 +13°C° 0 mm 3 m/s 735 mmHg 85%
    06:00 +15°C° 0 mm 4 m/s 735 mmHg 80%
    07:00 +18°C° 0 mm 4 m/s 735 mmHg 75%
    08:00 +19°C° 0 mm 4 m/s 735 mmHg 69%
    09:00 +21°C° 0 mm 4 m/s 735 mmHg 63%
    10:00 +22°C° 0 mm 5 m/s 735 mmHg 57%
    11:00 +23°C° 0 mm 5 m/s 734 mmHg 55%
    12:00 +23°C° 0 mm 5 m/s 734 mmHg 54%
    13:00 +25°C° 0 mm 5 m/s 734 mmHg 53%
    14:00 +25°C° 0.2 mm 5 m/s 734 mmHg 57%
    15:00 +23°C° 0.2 mm 4 m/s 734 mmHg 60%
    16:00 +23°C° 0.2 mm 4 m/s 734 mmHg 64%
    17:00 +22°C° 0.5 mm 3 m/s 733 mmHg 72%
    18:00 +20°C° 0.5 mm 2 m/s 733 mmHg 80%
    19:00 +18°C° 0.5 mm 2 m/s 733 mmHg 88%
    20:00 +18°C° 0.2 mm 1 m/s 733 mmHg 89%
    21:00 +15°C° 0.2 mm 0 m/s 733 mmHg 91%
    22:00 +14°C° 0.2 mm 0 m/s 733 mmHg 92%
    23:00 +14°C° 0.1 mm 0 m/s 733 mmHg 93%

    28 Mai, Marţi

    Timp Temperatura Precipitaţii Vânt Presiune Umiditate
    00:00 +14°C° 0.1 mm 0 m/s 733 mmHg 93%
    01:00 +14°C° 0.1 mm 0 m/s 733 mmHg 94%
    02:00 +15°C° 0.9 mm 1 m/s 733 mmHg 95%
    03:00 +15°C° 0.9 mm 1 m/s 732 mmHg 97%
    04:00 +15°C° 0.9 mm 1 m/s 732 mmHg 98%
    05:00 +15°C° 2.6 mm 1 m/s 732 mmHg 98%
    06:00 +15°C° 2.6 mm 1 m/s 732 mmHg 98%
    07:00 +15°C° 2.6 mm 2 m/s 732 mmHg 98%
    08:00 +14°C° 2.8 mm 2 m/s 732 mmHg 98%
    09:00 +13°C° 2.8 mm 3 m/s 732 mmHg 98%
    10:00 +13°C° 2.8 mm 4 m/s 732 mmHg 98%
    11:00 +13°C° 1.7 mm 4 m/s 732 mmHg 97%
    12:00 +12°C° 1.7 mm 4 m/s 732 mmHg 97%
    13:00 +12°C° 1.7 mm 5 m/s 732 mmHg 96%
    14:00 +12°C° 0.4 mm 5 m/s 732 mmHg 96%
    15:00 +11°C° 0.4 mm 6 m/s 732 mmHg 96%
    16:00 +10°C° 0.4 mm 6 m/s 732 mmHg 95%
    17:00 +10°C° 0.9 mm 6 m/s 733 mmHg 96%
    18:00 +10°C° 0.9 mm 5 m/s 733 mmHg 96%
    19:00 +10°C° 0.9 mm 5 m/s 733 mmHg 97%
    20:00 +10°C° 0.6 mm 5 m/s 734 mmHg 97%
    21:00 +10°C° 0.6 mm 5 m/s 734 mmHg 97%
    22:00 +11°C° 0.6 mm 4 m/s 735 mmHg 96%
    23:00 +10°C° 0.3 mm 5 m/s 735 mmHg 97%

    29 Mai, Miercuri

    Timp Temperatura Precipitaţii Vânt Presiune Umiditate
    00:00 +10°C° 0.3 mm 5 m/s 736 mmHg 97%
    01:00 +10°C° 0.3 mm 5 m/s 736 mmHg 97%
    02:00 +9°C° 0.1 mm 5 m/s 737 mmHg 96%
    03:00 +8°C° 0.1 mm 5 m/s 737 mmHg 95%
    04:00 +7°C° 0.1 mm 5 m/s 738 mmHg 94%
    05:00 +7°C° 0 mm 5 m/s 738 mmHg 91%
    06:00 +7°C° 0 mm 5 m/s 739 mmHg 89%
    07:00 +7°C° 0 mm 5 m/s 740 mmHg 86%
    08:00 +8°C° 0 mm 5 m/s 740 mmHg 81%
    09:00 +9°C° 0 mm 5 m/s 740 mmHg 75%
    10:00 +12°C° 0 mm 5 m/s 741 mmHg 69%
    11:00 +12°C° 0 mm 5 m/s 741 mmHg 67%
    12:00 +13°C° 0 mm 5 m/s 741 mmHg 65%
    13:00 +14°C° 0 mm 5 m/s 742 mmHg 63%
    14:00 +14°C° 0 mm 4 m/s 742 mmHg 62%
    15:00 +14°C° 0 mm 4 m/s 742 mmHg 61%
    16:00 +14°C° 0 mm 4 m/s 743 mmHg 61%
    17:00 +13°C° 0 mm 3 m/s 743 mmHg 66%
    18:00 +12°C° 0 mm 3 m/s 743 mmHg 70%
    19:00 +12°C° 0 mm 2 m/s 743 mmHg 75%
    20:00 +10°C° 0 mm 2 m/s 744 mmHg 77%
    21:00 +10°C° 0 mm 1 m/s 744 mmHg 79%
    22:00 +9°C° 0 mm 1 m/s 745 mmHg 81%
    23:00 +8°C° 0 mm 1 m/s 745 mmHg 84%

    30 Mai, Joi

    Timp Temperatura Precipitaţii Vânt Presiune Umiditate
    00:00 +7°C° 0 mm 1 m/s 745 mmHg 86%
    01:00 +7°C° 0 mm 1 m/s 745 mmHg 89%
    02:00 +6°C° 0 mm 1 m/s 746 mmHg 89%
    03:00 +6°C° 0 mm 1 m/s 746 mmHg 89%
    04:00 +5°C° 0 mm 0 m/s 746 mmHg 89%
    05:00 +7°C° 0 mm 0 m/s 746 mmHg 84%
    06:00 +8°C° 0 mm 0 m/s 746 mmHg 78%
    07:00 +10°C° 0 mm 0 m/s 746 mmHg 72%
    08:00 +12°C° 0 mm 0 m/s 746 mmHg 67%
    09:00 +14°C° 0 mm 1 m/s 746 mmHg 62%
    10:00 +16°C° 0 mm 1 m/s 745 mmHg 56%
    11:00 +18°C° 0 mm 1 m/s 745 mmHg 54%
    12:00 +19°C° 0 mm 1 m/s 744 mmHg 52%
    13:00 +18°C° 0 mm 0 m/s 744 mmHg 50%
    14:00 +20°C° 0 mm 1 m/s 744 mmHg 52%
    15:00 +19°C° 0 mm 1 m/s 743 mmHg 55%
    16:00 +19°C° 0 mm 1 m/s 743 mmHg 57%
    17:00 +18°C° 0 mm 1 m/s 743 mmHg 63%
    18:00 +16°C° 0 mm 1 m/s 742 mmHg 69%
    19:00 +15°C° 0 mm 2 m/s 742 mmHg 75%
    20:00 +13°C° 0 mm 2 m/s 742 mmHg 77%
    21:00 +12°C° 0 mm 2 m/s 742 mmHg 79%
    22:00 +10°C° 0 mm 2 m/s 742 mmHg 81%
    23:00 +10°C° 0 mm 3 m/s 742 mmHg 78%
    Arată mai mult